Погода в Галифаксе

Великобритания     53°43′26″N   1°51′45″W
темп.,
°C
ветер,
м/с
пор.,
м/с
влажн.,
%
обл.,
%
осадки,
мм/ч
давл.,
гПа
погр.,
м
8 мая, сб
сб801:00+4юв1173100 0.0 101319
04:00+4в2581100 0.0 1009196
07:00+3вюв51294100 1.0 1006729
10:00+4вюв61598100 10.7 1001784
13:00+5юв2799100 15.3 997318
16:00+10ююз31197100 0.3 996602
19:00+11ююз41296100 2.4 995795
22:00+12ю51295100 1.7 994828
9 мая, вс
вс901:00+11ю51395100 2.0 994792
04:00+11ююз41294100 0.3 993714
07:00+10ююз3991100 0.8 993420
10:00+12ююз51176100 0.1 9931186
13:00+15ююз61057100 0.1 9931689
16:00+15ююз695788 0.1 9921704
19:00+13ююз5117095 0.3 9931231
22:00+11ю3981100 0.0 993622
10 мая, пн
пн1001:00+9ю3984100 0.0 994489
04:00+8ю2786100 0.0 993384
07:00+9ююв397998 0.0 994915
10:00+11ю51069100 0.1 9951343
13:00+13ююз6116672 0.3 9951623
16:00+12ююз6118370 1.3 9961201
19:00+11юз6118143 2.1 9981127
22:00+8юз411770 0.0 1002697
11 мая, вт
вт1101:00+6ююз258895 0.0 1004139
04:00+5ю11866 0.0 100527
07:00+7ююв138316 0.0 1006125
10:00+11юв466794 0.1 10061235
13:00+12юв5764100 1.0 10051432
16:00+12юв4874100 1.5 10041149
19:00+10юв4108568 4.1 1003997
22:00+8юв389546 0.0 1003352
12 мая, ср
ср1201:00+7ююв239639 0.0 100498
04:00+7ююв3892100 0.0 1004374
07:00+8ююв4109193 0.1 1004833
10:00+10ююв598063 0.1 1004936
13:00+9юз61090100 0.8 1006843
16:00+13з57549 0.1 10061531
19:00+12зсз23636 0.1 1007636
22:00+8сз118142 0.1 100811